Location: Arrien
(43.3167°N, 0.1500°W)
Time: 04:57:01
(UTC+00:00)

Cosmos 1697 Rocket - Pass Details

Date: 15 October 2021
Orbit: 834 x 842 km, 71.0° (Epoch: 02 December)

Event Time Altitude Azimuth Distance (km) Brightness Sun altitude
Rises 17:48:39 0° 192° (SSW) 3,382 6.1 -6.4°
Reaches altitude 10° 17:51:06 10° 188° (S) 2,451 5.3 -6.9°
Maximum altitude 17:56:37 60° 110° (ESE) 959 2.8 -7.9°
Drops below altitude 10° 18:02:11 10° 32° (NNE) 2,465 4.8 -8.9°
Sets 18:04:39 0° 29° (NNE) 3,402 5.5 -9.4°
